This demonstration page uses our WeatherBlox Daily Observations layout. Learn more.

Left ArrowRight Arrow

34.16533, -84.80231

Hourly Observations for December 4, 2017

Temp ( °F °C ) Dew Point ( °F °C ) Humidity (%) Winds ( mph kmh ) Pressure ( in mb ) Visibility ( mi km ) Precip ( " mm )
12:53 am 00:53 Clear 39 3.9 39 3.9 100 100 Calm 30.19 1022 9 14 0.00 0.00
1:53 am 01:53 Clear 41 5 41 5 100 100 Calm 30.19 1023 8 13 0.00 0.00
2:53 am 02:53 Clear with Mist and Fog 39 3.9 39 3.9 100 100 Calm 30.20 1023 6 10 0.00 0.00
3:53 am 03:53 Clear with Mist and Fog 41 5 41 5 100 100 Calm 30.21 1023 5 8 0.00 0.00
4:14 am 04:14 Mostly Clear with Mist and Fog 41 5 41 5 100 100 Calm 30.24 1024 4 6 0.00 0.00
4:53 am 04:53 Partly Cloudy with Mist and Fog 39 3.9 39 3.9 100 100 Calm 30.22 1023 4 6 0.00 0.00
5:00 am 05:00 Mostly Cloudy with Mist and Fog 41 5 41 5 100 100 Calm 30.24 1024 3 5 0.00 0.00
5:33 am 05:33 Partly Cloudy with Mist and Fog 39 3.9 39 3.9 100 100 Calm 30.27 1025 5 8 0.00 0.00
5:53 am 05:53 Clear with Mist and Fog 39 3.9 39 3.9 100 100 Calm 30.22 1023 5 8 0.00 0.00
6:53 am 06:53 Clear with Mist and Fog 45 7.2 45 7.2 100 100 Calm 30.24 1024 5 8 0.00 0.03
7:12 am 07:12 Clear with Mist and Fog 41 5 41 5 100 100 E 3 6 30.30 1026 2 3 0.00 0.00
7:22 am 07:22 Clear with Mist and Fog 44 6.7 44 6.7 100 100 VRB 3 6 30.27 1025 5 8 0.00 0.00
7:53 am 07:53 Sunny with Mist and Fog 46 7.8 46 7.8 100 100 SE 3 6 30.26 1025 5 8 0.00 0.00
8:53 am 08:53 Sunny 49 9.4 48 8.9 97 97 Calm 30.27 1025 7 11 0.00 0.00
9:53 am 09:53 Sunny 54 12.2 49 9.4 83 83 SE 6 9 30.27 1025 10 16 0.00 0.00
10:53 am 10:53 Mostly Sunny 59 15 50 10 72 72 E 6 9 30.28 1026 10 16 0.00 0.00
11:53 am 11:53 Partly Cloudy 62 16.7 49 9.4 62 62 SSE 12 19 30.26 1025 10 16 0.00 0.00
12:53 pm 12:53 Sunny 64 17.8 47 8.3 54 54 SE 9 15 30.23 1024 10 16 0.00 0.00
1:53 pm 13:53 Sunny 65 18.3 47 8.3 52 52 S 8 13 30.21 1023 10 16 0.00 0.00
2:53 pm 14:53 Sunny 66 18.9 46 7.8 49 49 SE 8 13 30.18 1022 10 16 0.00 0.00
3:53 pm 15:53 Sunny 65 18.3 46 7.8 51 51 SSE 12 19 30.18 1022 10 16 0.00 0.00
4:53 pm 16:53 Sunny 63 17.2 46 7.8 54 54 SSE 8 13 30.18 1022 10 16 0.00 0.00
5:53 pm 17:53 Clear 58 14.4 47 8.3 67 67 S 3 6 30.19 1022 10 16 0.00 0.00
6:53 pm 18:53 Clear 56 13.3 47 8.3 72 72 SE 3 6 30.19 1023 10 16 0.00 0.00
7:53 pm 19:53 Clear 57 13.9 48 8.9 72 72 E 5 7 30.20 1023 10 16 0.00 0.00
8:53 pm 20:53 Mostly Clear 52 11.1 47 8.3 83 83 NNE 3 6 30.21 1023 10 16 0.00 0.00
9:53 pm 21:53 Clear 56 13.3 50 10 81 81 ESE 3 6 30.20 1023 10 16 0.00 0.00
10:53 pm 22:53 Mostly Cloudy 52 11.1 49 9.4 89 89 Calm 30.20 1023 10 16 0.00 0.00
11:53 pm 23:53 Mostly Cloudy 56 13.3 51 10.6 84 84 E 3 6 30.19 1023 10 16 0.00 0.00

Powered by AerisWeather